Weather History for Mammoth, CA

Change the Weather History Date:

Tuesday, December 17, 2013

  Actual Average Record
Temperature  
Mean Temperature 32 °F -  
Max Temperature 55 °F 38 °F 102 °F (1997)
Min Temperature 10 °F 23 °F -2 °F (2008)
Degree Days  
Heating Degree Days 32    
Moisture  
Dew Point 15 °F    
Average Humidity 58    
Maximum Humidity 92    
Minimum Humidity 15    
Precipitation  
Precipitation 0.00 in - - ()
Sea Level Pressure  
Sea Level Pressure 30.39 in    
Wind  
Wind Speed 2 mph (NNE)    
Max Wind Speed 8 mph    
Max Gust Speed -    
Visibility 10 miles    
Events      
Averages and records for this station are not official NWS values.
T = Trace of Precipitation, MM = Missing Value Source: NWS Daily Summary

Daily Weather History Graph

Daily Weather History Graph

Search for Another Location

Airport:

Trip Planner

Search our weather history database for the weather conditions in past years. The results will help you decide how hot, cold, wet, or windy it might be!

Date:

Astronomy

Dec. 17, 2013 Rise Set
Actual Time 7:04 AM PST 4:38 PM PST
Civil Twilight 6:35 AM PST 5:08 PM PST
Nautical Twilight 6:02 AM PST 5:41 PM PST
Astronomical Twilight 5:30 AM PST 6:12 PM PST
Moon 5:21 PM PST (12/17) 7:05 AM PST (12/17)
Length of Visible Light 10h 32m
Length of Day
9h 34m
Full, 100% of the Moon is Illuminated
Dec 17
Full
Dec 25
Last Quarter
Jan 1
New
Jan 7
First Quarter
Jan 15
Full

Hourly Weather History & Observations

Time (PST) Temp. Windchill Dew Point Humidity Pressure Visibility Wind Dir Wind Speed Gust Speed Precip Events Conditions
12:15 AM 19.4 °F 14.3 °F 12.2 °F 74% 30.48 in 10.0 mi North 3.5 mph - N/A   Clear
12:35 AM 23.0 °F - 12.2 °F 63% 30.48 in 10.0 mi North - - N/A   Clear
12:55 AM 21.2 °F - 12.2 °F 68% 30.47 in 10.0 mi Calm Calm - N/A   Clear
1:15 AM 23.0 °F 18.4 °F 14.0 °F 68% 30.47 in 10.0 mi NNW 3.5 mph - N/A   Clear
1:35 AM 23.0 °F 18.4 °F 14.0 °F 68% 30.47 in 10.0 mi NW 3.5 mph - N/A   Clear
1:55 AM 19.4 °F 14.3 °F 12.2 °F 74% 30.47 in 10.0 mi NNW 3.5 mph - N/A   Clear
2:15 AM 19.4 °F - 12.2 °F 74% 30.47 in 10.0 mi Calm Calm - N/A   Clear
2:35 AM 17.6 °F - 12.2 °F 79% 30.47 in 10.0 mi North - - N/A   Clear
2:55 AM 21.2 °F - 12.2 °F 68% 30.47 in 10.0 mi North - - N/A   Clear
3:15 AM 15.8 °F - 10.4 °F 79% 30.46 in 10.0 mi North - - N/A   Clear
3:35 AM 14.0 °F - 8.6 °F 79% 30.46 in 10.0 mi Calm Calm - N/A   Clear
3:55 AM 14.0 °F - 8.6 °F 79% 30.46 in 10.0 mi Calm Calm - N/A   Clear
4:15 AM 14.0 °F 8.2 °F 10.4 °F 86% 30.46 in 10.0 mi NNW 3.5 mph - N/A   Clear
4:35 AM 12.2 °F 6.1 °F 8.6 °F 85% 30.45 in 10.0 mi NNW 3.5 mph - N/A   Clear
4:55 AM 15.8 °F - 10.4 °F 79% 30.44 in 10.0 mi Calm Calm - N/A   Clear
5:15 AM 17.6 °F - 10.4 °F 73% 30.44 in 10.0 mi North - - N/A   Clear
5:35 AM 15.8 °F - 8.6 °F 73% 30.44 in 10.0 mi Calm Calm - N/A   Clear
5:55 AM 10.4 °F - 6.8 °F 85% 30.45 in 10.0 mi Calm Calm - N/A   Clear
6:15 AM 10.4 °F 2.2 °F 8.6 °F 92% 30.45 in 10.0 mi NNW 4.6 mph - N/A   Clear
6:35 AM 10.4 °F - 8.6 °F 92% 30.45 in 10.0 mi Calm Calm - N/A   Clear
6:55 AM 14.0 °F 6.5 °F 10.4 °F 86% 30.45 in 10.0 mi North 4.6 mph - N/A   Clear
7:15 AM 17.6 °F 10.7 °F 12.2 °F 79% 30.45 in 10.0 mi North 4.6 mph - N/A   Clear
7:35 AM 19.4 °F - 14.0 °F 80% 30.46 in 10.0 mi Calm Calm - N/A   Clear
7:55 AM 21.2 °F - 14.0 °F 74% 30.46 in 10.0 mi Calm Calm - N/A   Clear
8:15 AM 23.0 °F - 15.8 °F 74% 30.46 in 10.0 mi Calm Calm - N/A   Clear
8:35 AM 26.6 °F - 15.8 °F 64% 30.46 in 10.0 mi Calm Calm - N/A   Clear
8:55 AM 30.2 °F - 17.6 °F 60% 30.46 in 10.0 mi Calm Calm - N/A   Clear
9:15 AM 32.0 °F - 17.6 °F 55% 30.46 in 10.0 mi Calm Calm - N/A   Clear
9:35 AM 35.6 °F - 17.6 °F 48% 30.46 in 10.0 mi Calm Calm - N/A   Clear
9:55 AM 33.8 °F 29.6 °F 19.4 °F 56% 30.45 in 10.0 mi SE 4.6 mph - N/A   Clear
10:15 AM 32.0 °F 27.5 °F 19.4 °F 60% 30.45 in 10.0 mi SE 4.6 mph - N/A   Clear
10:35 AM 35.6 °F - 19.4 °F 52% 30.44 in 10.0 mi Calm Calm - N/A   Clear
10:55 AM 37.4 °F - 19.4 °F 48% 30.44 in 10.0 mi Calm Calm - N/A   Clear
11:15 AM 37.4 °F 33.8 °F 19.4 °F 48% 30.43 in 10.0 mi SE 4.6 mph - N/A   Clear
11:35 AM 39.2 °F - 19.4 °F 45% 30.41 in 10.0 mi Calm Calm - N/A   Clear
11:55 AM 42.8 °F - 17.6 °F 36% 30.40 in 10.0 mi Calm Calm - N/A   Clear
12:15 PM 48.2 °F - 15.8 °F 27% 30.38 in 10.0 mi Calm Calm - N/A   Clear
12:35 PM 48.2 °F - 17.6 °F 30% 30.38 in 10.0 mi ESE 5.8 mph - N/A   Clear
12:55 PM 50.0 °F - 19.4 °F 30% 30.36 in 10.0 mi SE 8.1 mph - N/A   Clear
1:15 PM 50.0 °F - 17.6 °F 28% 30.35 in 10.0 mi SE 6.9 mph - N/A   Clear
1:35 PM 51.8 °F - 14.0 °F 22% 30.35 in 10.0 mi SSE 5.8 mph - N/A   Clear
1:55 PM 55.4 °F - 8.6 °F 15% 30.34 in 10.0 mi SE 6.9 mph - N/A   Clear
2:15 PM 55.4 °F - 12.2 °F 18% 30.33 in 10.0 mi ESE 5.8 mph - N/A   Clear
2:35 PM 53.6 °F - 12.2 °F 19% 30.33 in 10.0 mi SE 5.8 mph - N/A   Clear
2:55 PM 53.6 °F - 14.0 °F 21% 30.33 in 10.0 mi SSE 3.5 mph - N/A   Clear
3:15 PM 51.8 °F - 14.0 °F 22% 30.33 in 10.0 mi SSE 5.8 mph - N/A   Clear
3:35 PM 51.8 °F - 15.8 °F 24% 30.33 in 10.0 mi Calm Calm - N/A   Clear
3:55 PM 50.0 °F - 15.8 °F 26% 30.32 in 10.0 mi Calm Calm - N/A   Clear
4:15 PM 48.2 °F - 15.8 °F 27% 30.32 in 10.0 mi Calm Calm - N/A   Clear
4:35 PM 44.6 °F - 15.8 °F 31% 30.32 in 10.0 mi Calm Calm - N/A   Clear
4:55 PM 41.0 °F - 15.8 °F 36% 30.33 in 10.0 mi Calm Calm - N/A   Clear
5:15 PM 39.2 °F - 15.8 °F 39% 30.32 in 10.0 mi Calm Calm - N/A   Clear
5:35 PM 37.4 °F 33.8 °F 15.8 °F 41% 30.33 in 10.0 mi North 4.6 mph - N/A   Clear
5:55 PM 33.8 °F - 17.6 °F 52% 30.33 in 10.0 mi Calm Calm - N/A   Clear
6:15 PM 35.6 °F 31.7 °F 17.6 °F 48% 30.33 in 10.0 mi NNW 4.6 mph - N/A   Clear
6:35 PM 30.2 °F - 15.8 °F 55% 30.33 in 10.0 mi Calm Calm - N/A   Clear
6:55 PM 30.2 °F - 17.6 °F 60% 30.33 in 10.0 mi Calm Calm - N/A   Clear
7:15 PM 30.2 °F - 19.4 °F 64% 30.33 in 10.0 mi Calm Calm - N/A   Clear
7:35 PM 28.4 °F - 17.6 °F 64% 30.33 in 10.0 mi Calm Calm - N/A   Clear
7:55 PM 28.4 °F 24.6 °F 17.6 °F 64% 30.33 in 10.0 mi NNE 3.5 mph - N/A   Clear
8:15 PM 30.2 °F - 17.6 °F 60% 30.33 in 10.0 mi Calm Calm - N/A   Clear
8:35 PM 28.4 °F - 19.4 °F 69% 30.33 in 10.0 mi Calm Calm - N/A   Clear
8:55 PM 30.2 °F - 19.4 °F 64% 30.33 in 10.0 mi Calm Calm - N/A   Clear
9:15 PM 28.4 °F - 19.4 °F 69% 30.33 in 10.0 mi Calm Calm - N/A   Clear
9:35 PM 24.8 °F 19.1 °F 17.6 °F 74% 30.32 in 10.0 mi NNW 4.6 mph - N/A   Clear
9:55 PM 24.8 °F - 17.6 °F 74% 30.32 in 10.0 mi Calm Calm - N/A   Clear
10:15 PM 26.6 °F 21.2 °F 17.6 °F 69% 30.31 in 10.0 mi North 4.6 mph - N/A   Clear
10:35 PM 26.6 °F - 19.4 °F 74% 30.31 in 10.0 mi Calm Calm - N/A   Clear
10:55 PM 28.4 °F - 19.4 °F 69% 30.31 in 10.0 mi Calm Calm - N/A   Clear
11:15 PM 28.4 °F 22.2 °F 19.4 °F 69% 30.30 in 10.0 mi NNW 5.8 mph - N/A   Clear
11:35 PM 28.4 °F 24.6 °F 19.4 °F 69% 30.29 in 10.0 mi WNW 3.5 mph - N/A   Scattered Clouds
11:55 PM 26.6 °F - 19.4 °F 74% 30.29 in 10.0 mi Calm Calm - N/A   Scattered Clouds